FW4614 Weather Reports


time (UTC)temp
C
wind
direction
speed
KPH
gust
KPH
rain 1hr
cm
rain 24hr
cm
rain mn
cm
humidity
%
barometer
mb
20260510175947 28 224 3.2 9.7 0.00 0.03 0.03 43 1016.0
20260510175443 27 84 1.6 11.3 0.00 0.03 0.03 43 1016.0
20260510174941 28 212 0.0 11.3 0.00 0.03 0.03 44 1016.0
20260510174438 27 75 1.6 9.7 0.00 0.03 0.03 47 1016.1
20260510173938 27 110 1.6 11.3 0.00 0.03 0.03 50 1016.1
20260510173439 27 77 0.0 11.3 0.00 0.03 0.03 50 1016.2
20260510172940 27 231 0.0 6.4 0.00 0.03 0.03 52 1016.3
20260510172436 26 67 0.0 4.8 0.00 0.03 0.03 54 1016.3
20260510171936 26 98 1.6 6.4 0.00 0.03 0.03 57 1016.5
20260510171439 26 200 1.6 9.7 0.00 0.03 0.03 62 1016.5
20260510170931 26 229 0.0 9.7 0.00 0.03 0.03 62 1016.6
20260510170431 25 221 1.6 12.9 0.00 0.03 0.03 63 1016.7
20260510165931 26 266 1.6 12.9 0.00 0.03 0.03 62 1016.7
20260510164929 25 212 0.0 9.7 0.00 0.03 0.03 64 1016.8
20260510164427 25 293 0.0 9.7 0.00 0.03 0.03 63 1016.8
20260510163931 25 270 0.0 8.0 0.00 0.03 0.03 64 1016.7
20260510163422 25 203 0.0 12.9 0.00 0.03 0.03 65 1016.7
20260510162921 26 221 0.0 12.9 0.00 0.03 0.03 65 1016.7
20260510162422 25 155 0.0 6.4 0.00 0.03 0.03 68 1016.7
20260510161918 25 197 0.0 6.4 0.00 0.03 0.03 70 1016.8
20260510161419 25 226 0.0 1.6 0.00 0.03 0.03 72 1016.7
20260510160917 24 258 0.0 6.4 0.00 0.03 0.03 73 1016.7
20260510160416 24 231 0.0 6.4 0.00 0.03 0.03 73 1016.7
20260510155913 23 112 0.0 3.2 0.00 0.03 0.03 75 1016.6
20260510154909 23 222 0.0 3.2 0.00 0.03 0.03 77 1016.7
20260510154406 22 135 0.0 8.0 0.00 0.03 0.03 78 1016.8
20260510153406 22 226 0.0 9.7 0.00 0.03 0.03 78 1016.7
20260510152907 22 245 0.0 1.6 0.00 0.03 0.03 79 1016.7
20260510152405 22 201 0.0 4.8 0.00 0.03 0.03 79 1016.7
20260510151904 22 227 0.0 4.8 0.00 0.03 0.03 79 1016.6
20260510151404 21 231 0.0 1.6 0.00 0.03 0.03 79 1016.6
20260510150902 21 307 0.0 3.2 0.00 0.03 0.03 79 1016.7
20260510150401 21 224 0.0 3.2 0.00 0.03 0.03 79 1016.6
20260510145859 20 205 0.0 3.2 0.00 0.03 0.03 78 1016.7
20260510145358 20 288 0.0 1.6 0.00 0.03 0.03 78 1016.8
20260510144852 20 245 0.0 0.0 0.00 0.03 0.03 77 1016.7
20260510144358 20 253 0.0 0.0 0.00 0.03 0.03 77 1016.7
20260510143851 20 253 0.0 0.0 0.00 0.03 0.03 77 1016.6
20260510143351 20 243 0.0 0.0 0.00 0.03 0.03 75 1016.6
20260510142848 20 80 0.0 0.0 0.00 0.03 0.03 75 1016.6
20260510141344 19 207 0.0 0.0 0.00 0.03 0.03 71 1016.5
20260510140842 19 206 0.0 1.6 0.00 0.03 0.03 67 1016.6
20260510140341 19 84 0.0 1.6 0.00 0.03 0.03 67 1016.6
20260510135841 19 149 0.0 0.0 0.00 0.03 0.03 66 1016.6
20260510135340 18 82 0.0 0.0 0.00 0.03 0.03 65 1016.6
20260510134845 18 122 0.0 0.0 0.00 0.03 0.03 64 1016.6
20260510134341 18 122 0.0 0.0 0.03 0.03 0.03 63 1016.7
20260510133841 18 122 0.0 0.0 0.03 0.03 0.03 63 1016.7
20260510133342 18 122 0.0 0.0 0.03 0.03 0.03 63 1016.7
20260510132841 18 122 0.0 0.0 0.03 0.03 0.03 64 1016.7
20260510132341 18 122 0.0 0.0 0.03 0.03 0.03 64 1016.6
20260510131840 17 122 0.0 0.0 0.03 0.03 0.03 64 1016.7
20260510131341 17 122 0.0 0.0 0.03 0.03 0.03 64 1016.6
20260510130842 17 122 0.0 0.0 0.03 0.03 0.03 65 1016.6
20260510130340 17 122 0.0 0.0 0.03 0.03 0.03 65 1016.6
20260510125342 17 198 0.0 0.0 0.03 0.03 0.03 65 1016.4
20260510124841 17 198 0.0 0.0 0.03 0.03 0.03 65 1016.5
20260510124340 16 198 0.0 0.0 0.00 0.00 0.00 65 1016.4
20260510123342 16 198 0.0 0.0 0.00 0.00 0.00 66 1016.6
20260510122840 16 198 0.0 0.0 0.00 0.00 0.00 66 1016.5
20260510122340 16 198 0.0 0.0 0.00 0.00 0.00 66 1016.5
20260510121840 15 198 0.0 0.0 0.00 0.00 0.00 66 1016.4
20260510120838 15 198 0.0 0.0 0.00 0.00 0.00 66 1016.2
20260510115840 15 198 0.0 0.0 0.00 0.00 0.00 67 1015.8
20260510115340 -17 0.0 0.0 0.00 0.00 0.00 1015.7
20260510114840 -17 0.0 0.0 0.00 0.00 0.00 1015.6
20260510114336 -17 0.0 0.0 0.00 0.00 0.00 1015.5
20260510113746 -17 0.0 0.0 0.00 0.00 0.00 1015.5
20260510113242 -17 0.0 0.0 0.00 0.00 0.00 1015.5
20260510112719 -17 0.0 0.0 0.00 0.00 0.00 1015.4
20260510111048 -17 0.0 0.0 0.00 0.00 0.00 1015.1
20260510110542 -17 0.0 0.0 0.00 0.00 0.00 1015.0
20260510110042 -17 0.0 0.0 0.00 0.00 0.00 1015.0
20260510105542 -17 0.0 0.0 0.00 0.00 0.00 1014.9
20260510105043 -17 203 0.0 0.0 0.00 0.00 0.00 1014.8
20260510104446 13 203 0.0 0.0 0.00 0.00 0.00 68 1014.7
20260510103947 13 203 0.0 0.0 0.00 0.00 0.00 68 1014.7
20260510102942 13 198 0.0 0.0 0.00 0.00 0.00 68 1014.4
20260510102444 13 198 0.0 0.0 0.00 0.00 0.00 68 1014.5
20260510101443 13 198 0.0 0.0 0.00 0.00 0.00 68 1014.4
20260510100442 14 198 0.0 0.0 0.00 0.00 0.00 68 1014.3
20260510095943 14 198 0.0 0.0 0.00 0.00 0.00 68 1014.2
20260510094443 14 198 0.0 0.0 0.00 0.00 0.00 68 1014.1
20260510093440 14 198 0.0 0.0 0.00 0.00 0.00 68 1013.8
20260510091938 14 198 0.0 0.0 0.00 0.00 0.00 68 1013.8
20260510091439 14 198 0.0 0.0 0.00 0.00 0.00 68 1013.9
20260510090940 14 198 0.0 0.0 0.00 0.00 0.00 69 1013.9
20260510090439 14 198 0.0 0.0 0.00 0.00 0.00 69 1013.9
20260510085440 15 198 0.0 0.0 0.00 0.00 0.00 69 1013.9
20260510084939 15 198 0.0 0.0 0.00 0.00 0.00 69 1013.9
20260510084441 15 198 0.0 0.0 0.00 0.00 0.00 69 1013.9
20260510083939 15 198 0.0 0.0 0.00 0.00 0.00 69 1013.8
20260510082939 15 198 0.0 0.0 0.00 0.00 0.00 69 1013.7
20260510082439 15 198 0.0 0.0 0.00 0.00 0.00 69 1013.6
20260510081941 15 198 0.0 0.0 0.00 0.00 0.00 69 1013.6
20260510081439 15 198 0.0 0.0 0.00 0.00 0.00 68 1013.7
20260510080939 15 198 0.0 0.0 0.00 0.00 0.00 68 1013.6
20260510080439 15 198 0.0 0.0 0.00 0.00 0.00 69 1013.5
20260510075939 15 198 0.0 0.0 0.00 0.00 0.00 69 1013.5
20260510074940 15 198 0.0 0.0 0.00 0.00 0.00 69 1013.4
20260510073938 15 198 0.0 0.0 0.00 0.00 0.00 69 1013.3
20260510073434 15 198 0.0 0.0 0.00 0.00 0.00 69 1013.2
20260510072931 16 198 0.0 0.0 0.00 0.00 0.00 69 1013.1
20260510072431 16 198 0.0 0.0 0.00 0.00 0.00 70 1013.1
20260510071931 16 198 0.0 0.0 0.00 0.00 0.00 70 1013.2
20260510071430 16 198 0.0 0.0 0.00 0.00 0.00 70 1013.2
20260510070429 16 198 0.0 0.0 0.00 0.00 0.00 70 1013.2
20260510065927 16 198 0.0 0.0 0.00 0.00 0.00 70 1013.3
20260510065523 16 198 0.0 0.0 0.00 0.00 0.00 71 1013.3
20260510063925 16 198 0.0 0.0 0.00 0.00 0.00 70 1013.3
20260510063425 16 198 0.0 0.0 0.00 0.00 0.00 71 1013.2
20260510062923 16 198 0.0 0.0 0.00 0.00 0.00 71 1013.2
20260510061923 16 198 0.0 0.0 0.00 0.00 0.00 71 1013.1
20260510061422 17 198 0.0 0.0 0.00 0.00 0.00 71 1013.2
20260510060918 17 198 0.0 0.0 0.00 0.00 0.00 72 1013.1
20260510060419 17 198 0.0 0.0 0.00 0.00 0.00 73 1013.1
20260510055918 17 198 0.0 0.0 0.00 0.00 0.00 72 1013.2
20260510054918 17 198 0.0 0.0 0.00 0.00 0.00 73 1013.2
20260510053915 17 198 0.0 0.0 0.00 0.00 0.00 73 1013.1
20260510053414 17 198 0.0 0.0 0.00 0.00 0.00 72 1013.1
20260510052914 17 198 0.0 0.0 0.00 0.00 0.00 72 1013.2
20260510052414 17 198 0.0 0.0 0.00 0.00 0.00 73 1013.2
20260510051913 17 198 0.0 0.0 0.00 0.00 0.00 73 1013.2
20260510051405 17 198 0.0 0.0 0.00 0.00 0.00 73 1013.2
20260510050905 17 198 0.0 0.0 0.00 0.00 0.00 74 1013.2
20260510050404 18 198 0.0 0.0 0.00 0.00 0.00 75 1013.2
20260510045905 18 198 0.0 0.0 0.00 0.00 0.00 75 1013.2
20260510045404 18 198 0.0 0.0 0.00 0.00 0.00 75 1013.1
20260510044904 18 198 0.0 0.0 0.00 0.00 0.00 75 1013.0
20260510043906 18 198 0.0 0.0 0.00 0.00 0.00 75 1013.0
20260510043403 18 198 0.0 0.0 0.00 0.00 0.00 76 1013.1
20260510042857 18 198 0.0 0.0 0.00 0.00 0.00 77 1013.2
20260510042357 18 198 0.0 0.0 0.00 0.00 0.00 77 1013.2
20260510041904 18 198 0.0 0.0 0.00 0.00 0.00 77 1013.3
20260510041354 18 203 0.0 0.0 0.00 0.00 0.00 77 1013.3
20260510040853 18 129 0.0 0.0 0.00 0.00 0.00 78 1013.3
20260510035853 18 96 0.0 3.2 0.00 0.00 0.00 78 1013.4
20260510034854 18 112 0.0 0.0 0.00 0.00 0.00 78 1013.3
20260510034352 18 112 0.0 0.0 0.00 0.00 0.00 78 1013.4
20260510033844 18 185 0.0 0.0 0.00 0.00 0.00 77 1013.4
20260510033342 18 224 0.0 0.0 0.00 0.00 0.00 77 1013.4
20260510032843 18 179 0.0 0.0 0.00 0.00 0.00 78 1013.3
20260510031844 18 207 0.0 0.0 0.00 0.00 0.00 79 1013.2
20260510031342 18 207 0.0 0.0 0.00 0.00 0.00 79 1013.2
20260510030842 18 207 0.0 0.0 0.00 0.00 0.00 79 1013.1
20260510025840 18 207 0.0 0.0 0.00 0.00 0.00 79 1013.0
20260510025341 18 207 0.0 0.0 0.00 0.00 0.00 79 1012.8
20260510024840 19 207 0.0 0.0 0.00 0.00 0.00 79 1012.7
20260510024342 19 207 0.0 0.0 0.00 0.00 0.00 79 1012.6
20260510023836 19 207 0.0 0.0 0.00 0.00 0.00 79 1012.5
20260510023330 19 207 0.0 0.0 0.00 0.00 0.00 79 1012.4
20260510022825 19 207 0.0 0.0 0.00 0.00 0.00 79 1012.3
20260510022324 20 207 0.0 0.0 0.00 0.00 0.00 79 1012.2
20260510021822 19 229 0.0 0.0 0.00 0.00 0.00 79 1012.1
20260510020321 19 154 0.0 0.0 0.00 0.00 0.00 78 1011.7
20260510015819 20 154 0.0 0.0 0.00 0.00 0.00 77 1011.7
20260510015318 20 154 0.0 0.0 0.00 0.00 0.00 77 1011.7
20260510014817 20 154 0.0 0.0 0.00 0.00 0.00 77 1011.5
20260510014318 20 154 0.0 0.0 0.00 0.00 0.00 77 1011.3
20260510013818 20 154 0.0 0.0 0.00 0.00 0.00 76 1011.1
20260510013317 20 154 0.0 0.0 0.00 0.00 0.00 75 1010.9
20260510012317 21 154 0.0 0.0 0.00 0.00 0.00 72 1010.7
20260510010811 21 154 0.0 0.0 0.00 0.00 0.00 70 1010.4
20260510010312 21 154 0.0 0.0 0.00 0.00 0.00 68 1010.3
20260510005812 22 154 0.0 0.0 0.00 0.00 0.00 67 1010.3
20260510005308 22 154 0.0 0.0 0.00 0.00 0.00 66 1010.2
20260510004811 23 154 0.0 0.0 0.00 0.00 0.00 65 1010.1
20260510004312 23 154 0.0 0.0 0.00 0.00 0.00 63 1009.9
20260510003807 23 154 0.0 0.0 0.00 0.00 0.00 61 1009.9
20260510003305 24 154 0.0 0.0 0.00 0.00 0.00 59 1009.9
20260510002803 25 154 0.0 0.0 0.00 0.00 0.00 57 1009.9
20260510002306 26 215 0.0 0.0 0.00 0.00 0.00 56 1009.7
20260510001800 26 213 0.0 0.0 0.00 0.00 0.00 56 1009.7
20260510001300 26 227 0.0 0.0 0.00 0.00 0.00 54 1009.7
20260510000259 26 236 0.0 4.8 0.00 0.00 0.00 53 1009.6
20260509235758 26 259 0.0 4.8 0.00 0.00 0.00 52 1009.7
20260509235257 26 250 0.0 1.6 0.00 0.00 0.00 51 1009.7
20260509234757 27 245 0.0 1.6 0.00 0.00 0.00 52 1009.7
20260509234259 26 82 0.0 0.0 0.00 0.00 0.00 54 1009.6
20260509232256 26 193 0.0 8.0 0.00 0.00 0.00 53 1009.7
20260509231256 26 206 1.6 6.4 0.00 0.00 0.00 53 1009.8
20260509230755 26 198 0.0 6.4 0.00 0.00 0.00 53 1009.7
20260509230253 26 238 1.6 6.4 0.00 0.00 0.00 52 1009.8
20260509225754 26 193 1.6 6.4 0.00 0.00 0.00 52 1009.7
20260509225253 25 188 1.6 8.0 0.00 0.00 0.00 53 1009.7
20260509224752 25 242 0.0 8.0 0.00 0.00 0.00 53 1009.6
20260509224251 25 209 0.0 4.8 0.00 0.00 0.00 53 1009.7
20260509223250 25 215 1.6 9.7 0.00 0.00 0.00 52 1009.6
20260509222752 25 295 0.0 8.0 0.00 0.00 0.00 51 1009.5
20260509222248 25 240 0.0 6.4 0.00 0.00 0.00 50 1009.5
20260509221748 26 246 1.6 8.0 0.00 0.00 0.00 50 1009.5
20260509221246 26 234 1.6 9.7 0.00 0.00 0.00 52 1009.5
20260509220745 26 264 1.6 9.7 0.00 0.00 0.00 50 1009.5
20260509220246 26 214 3.2 12.9 0.00 0.00 0.00 50 1009.4
20260509215746 26 278 4.8 12.9 0.00 0.00 0.00 50 1009.4
20260509215235 26 292 6.4 14.5 0.00 0.00 0.00 50 1009.3
20260509214730 26 225 3.2 14.5 0.00 0.00 0.00 50 1009.4
20260509213714 26 272 4.8 16.1 0.00 0.00 0.00 49 1009.3
20260509213207 26 274 4.8 16.1 0.00 0.00 0.00 49 1009.3
20260509212702 26 164 3.2 12.9 0.00 0.00 0.00 49 1009.2
20260509212152 26 290 6.4 16.1 0.00 0.00 0.00 49 1009.3
20260509211149 26 206 4.8 14.5 0.00 0.00 0.00 49 1009.5
20260509210643 26 255 3.2 8.0 0.00 0.00 0.00 50 1009.3
20260509210144 26 303 6.4 14.5 0.00 0.00 0.00 48 1009.4
20260509205644 26 232 8.0 17.7 0.00 0.00 0.00 48 1009.5
20260509205143 26 228 8.0 17.7 0.00 0.00 0.00 49 1009.6
20260509204645 26 233 4.8 17.7 0.00 0.00 0.00 49 1009.7
20260509204143 26 189 8.0 14.5 0.00 0.00 0.00 50 1009.7
20260509203143 26 267 8.0 16.1 0.00 0.00 0.00 49 1009.8
20260509202644 26 265 9.7 17.7 0.00 0.00 0.00 49 1009.9
20260509202144 25 243 8.0 17.7 0.00 0.00 0.00 50 1009.9
20260509201141 25 214 4.8 12.9 0.00 0.00 0.00 51 1010.0
20260509200137 26 238 8.0 19.3 0.00 0.00 0.00 50 1010.0
20260509195629 26 245 3.2 19.3 0.00 0.00 0.00 49 1010.0
20260509195122 26 256 3.2 12.9 0.00 0.00 0.00 49 1010.0
20260509194624 26 209 6.4 19.3 0.00 0.00 0.00 50 1010.1
20260509193620 25 256 8.0 19.3 0.00 0.00 0.00 50 1010.0
20260509192621 26 217 3.2 11.3 0.00 0.00 0.00 51 1010.1
20260509192117 26 295 3.2 19.3 0.00 0.00 0.00 52 1010.1
20260509191617 26 220 3.2 19.3 0.00 0.00 0.00 50 1010.1
20260509191120 26 321 4.8 20.9 0.00 0.00 0.00 52 1010.1
20260509190618 25 184 4.8 20.9 0.00 0.00 0.00 52 1010.2
20260509190115 25 236 4.8 17.7 0.00 0.00 0.00 53 1010.4
20260509185614 25 231 6.4 14.5 0.00 0.00 0.00 51 1010.5
20260509185113 25 245 9.7 24.1 0.00 0.00 0.00 51 1010.4
20260509184613 25 211 11.3 24.1 0.00 0.00 0.00 51 1010.4
20260509184114 25 222 9.7 20.9 0.00 0.00 0.00 53 1010.6
20260509183611 25 253 9.7 20.9 0.00 0.00 0.00 51 1010.6
20260509182611 25 218 9.7 17.7 0.00 0.00 0.00 54 1010.8
20260509182113 25 271 8.0 17.7 0.00 0.00 0.00 53 1010.8